Estación de Tamelaike INIA
Ultimos registro cada 15 minutos 47
| N° | Estación | Fecha / Hora | Temperatura | Humedad | Lluvia | Velocidad | Dirección | Radiación | Presion |
| 47 | Tamelaike INIA | 06-05-2026 11:30 | 0,9 | 98,9 | 0 | 0,1 | 286 | 120 | 998 |
| 46 | Tamelaike INIA | 06-05-2026 11:15 | 0,8 | 98,9 | 0 | 0 | 0 | 98 | 998 |
| 45 | Tamelaike INIA | 06-05-2026 11:00 | 0,8 | 98,9 | 0 | 0 | 0 | 84 | 999 |
| 44 | Tamelaike INIA | 06-05-2026 10:45 | 0,8 | 98,6 | 0 | 0 | 0 | 94 | 998 |
| 43 | Tamelaike INIA | 06-05-2026 10:30 | 0,6 | 98,8 | 0 | 0 | 0 | 98 | 998 |
| 42 | Tamelaike INIA | 06-05-2026 10:15 | 0,4 | 99,1 | 0 | 0 | 34 | 87 | 998 |
| 41 | Tamelaike INIA | 06-05-2026 10:00 | 0,5 | 98,5 | 0 | 0 | 0 | 68 | 999 |
| 40 | Tamelaike INIA | 06-05-2026 09:45 | 0,5 | 98,5 | 0 | 0 | 0 | 67 | 998 |
| 39 | Tamelaike INIA | 06-05-2026 09:30 | 0,2 | 98,7 | 0 | 0 | 0 | 55 | 998 |
| 38 | Tamelaike INIA | 06-05-2026 09:15 | 0,2 | 98,7 | 0,1 | 0 | 0 | 46 | 998 |
| 37 | Tamelaike INIA | 06-05-2026 09:00 | 0 | 98,7 | 0 | 0 | 0 | 31 | 999 |
| 36 | Tamelaike INIA | 06-05-2026 08:45 | -0,1 | 98,1 | 0 | 0 | 0 | 25 | 998 |
| 35 | Tamelaike INIA | 06-05-2026 08:30 | -0,5 | 98,6 | 0 | 0 | 0 | 14 | 997 |
| 34 | Tamelaike INIA | 06-05-2026 08:15 | -1 | 98,6 | 0 | 0 | 0 | 6 | 998 |
| 33 | Tamelaike INIA | 06-05-2026 08:00 | -1 | 98 | 0 | 0 | 0 | 2 | 998 |
| 32 | Tamelaike INIA | 06-05-2026 07:45 | -0,6 | 97,5 | 0 | 0 | 0 | 0 | 1000 |
| 31 | Tamelaike INIA | 06-05-2026 07:30 | -0,3 | 97,4 | 0 | 0 | 0 | 0 | 998 |
| 30 | Tamelaike INIA | 06-05-2026 07:15 | 0,1 | 97,6 | 0 | 0 | 0 | 0 | 998 |
| 29 | Tamelaike INIA | 06-05-2026 07:00 | 0 | 97,4 | 0 | 0 | 0 | 0 | 998 |
| 28 | Tamelaike INIA | 06-05-2026 06:45 | -0,9 | 98,4 | 0 | 0 | 0 | 0 | 997 |
| 27 | Tamelaike INIA | 06-05-2026 06:30 | -0,6 | 96,8 | 0 | 0 | 0 | 0 | 997 |
| 26 | Tamelaike INIA | 06-05-2026 06:15 | -0,8 | 97,5 | 0 | 0 | 0 | 0 | 997 |
| 25 | Tamelaike INIA | 06-05-2026 06:00 | -1,3 | 97,6 | 0 | 0 | 0 | 0 | 997 |
| 24 | Tamelaike INIA | 06-05-2026 05:45 | -1,3 | 97,1 | 0 | 0 | 0 | 0 | 997 |
| 23 | Tamelaike INIA | 06-05-2026 05:30 | -1,6 | 97,5 | 0 | 0 | 0 | 0 | 996 |
| 22 | Tamelaike INIA | 06-05-2026 05:15 | -1,6 | 97,3 | 0 | 0 | 0 | 0 | 997 |
| 21 | Tamelaike INIA | 06-05-2026 05:00 | -1,7 | 97,4 | 0 | 0,2 | 116 | 0 | 997 |
| 20 | Tamelaike INIA | 06-05-2026 04:45 | -1,8 | 97,8 | 0 | 0 | 0 | 0 | 997 |
| 19 | Tamelaike INIA | 06-05-2026 04:30 | -1,5 | 96,8 | 0 | 0 | 0 | 0 | 997 |
| 18 | Tamelaike INIA | 06-05-2026 04:15 | -0,5 | 96,5 | 0 | 0 | 0 | 0 | 997 |
| 17 | Tamelaike INIA | 06-05-2026 04:00 | -0,6 | 97,8 | 0 | 0 | 0 | 0 | 997 |
| 16 | Tamelaike INIA | 06-05-2026 03:45 | -1,3 | 97,2 | 0 | 0 | 0 | 0 | 997 |
| 15 | Tamelaike INIA | 06-05-2026 03:30 | -1,1 | 96,9 | 0 | 0 | 0 | 0 | 997 |
| 14 | Tamelaike INIA | 06-05-2026 03:15 | -0,6 | 96,4 | 0 | 0 | 0 | 0 | 997 |
| 13 | Tamelaike INIA | 06-05-2026 03:00 | -1,2 | 98,1 | 0 | 0 | 0 | 0 | 997 |
| 12 | Tamelaike INIA | 06-05-2026 02:45 | -0,7 | 96,3 | 0 | 0 | 0 | 0 | 997 |
| 11 | Tamelaike INIA | 06-05-2026 02:30 | -0,2 | 96,4 | 0 | 0 | 0 | 0 | 997 |
| 10 | Tamelaike INIA | 06-05-2026 02:15 | -0,1 | 96 | 0 | 0 | 0 | 0 | 997 |
| 9 | Tamelaike INIA | 06-05-2026 02:00 | 0,2 | 95,3 | 0 | 0,2 | 104 | 0 | 998 |
| 8 | Tamelaike INIA | 06-05-2026 01:45 | 0,5 | 96,9 | 0 | 0 | 0 | 0 | 998 |
| 7 | Tamelaike INIA | 06-05-2026 01:30 | 0,1 | 96,4 | 0 | 0 | 0 | 0 | 997 |
| 6 | Tamelaike INIA | 06-05-2026 01:15 | -0,1 | 96,7 | 0 | 0,1 | 125 | 0 | 998 |
| 5 | Tamelaike INIA | 06-05-2026 01:00 | 0,2 | 96,1 | 0 | 0,4 | 124 | 0 | 999 |
| 4 | Tamelaike INIA | 06-05-2026 00:45 | 0,7 | 95,1 | 0 | 0 | 0 | 0 | 999 |
| 3 | Tamelaike INIA | 06-05-2026 00:30 | 0,3 | 96,3 | 0 | 0 | 0 | 0 | 998 |
| 2 | Tamelaike INIA | 06-05-2026 00:15 | 0,5 | 95,3 | 0 | 0 | 106 | 0 | 1003 |
| 1 | Tamelaike INIA | 06-05-2026 00:00 | 1,3 | 93,8 | 0 | 0,5 | 112 | 0 | 1017 |